Flag for Netherlands Weather past 2 weeks in Breda, Netherlands

Now
61 °F

Partly sunny.


Feels Like: 61 °F
Forecast: 47 / 56 °F
Wind: 12 mph from West

Location: Gilze-Rijen

Current Time: Oct 20, 2014 at 12:49:58 PM

Latest Report: Oct 20, 2014 at 12:25 PM


Visibility: N/A

Pressure: 30.01 "Hg

Humidity: 77%

Dew point: 54 °F

Location of BredaLocation

Historic Weather in Breda — Graph

°F

Breda temperature yesterday

Maximum temperature yesterday: 72 °F (at 12:55 PM)
Minimum temperature yesterday: 57 °F (at 2:25 AM)
Average temperature yesterday: 64 °F

Past Weeks' High & Low Weather Summary

 TemperatureHumidityPressure
High73 °F (Oct 18, 2:25 PM)100% (Oct 6, 3:01 AM)30.09 "Hg (Oct 6, 3:01 AM)
Low41 °F (Oct 12, 7:25 AM)59% (Oct 7, 2:25 PM)29.45 "Hg (Oct 7, 8:55 AM)
Average57 °F87%29.79 "Hg
* Reported Oct 5 11:25 AM — Oct 20 11:55 AM, Breda, Weather by CustomWeather, © 2014

Note: Actual official high and low records may vary slightly from our data, if they occured in-between our weather recording intervals... More about our weather records

Advertising

Breda weather history for previous 24 hours

 ConditionsComfort  
Time TempWeatherWind HumidityBarometerVisibility
11:55 AM
Oct 20
61 °FCloudy.12 mph77%30.04 "HgN/A
11:25 AM61 °FPartly sunny.10 mph77%30.01 "HgN/A
10:55 AM59 °FOvercast.8 mph82%30.01 "HgN/A
10:25 AM59 °FMore clouds than sun.10 mph82%30.01 "HgN/A
9:55 AM57 °FOvercast.7 mph88%30.01 "HgN/A
9:25 AM57 °FOvercast.8 mph88%30.01 "HgN/A
8:55 AM57 °FMostly cloudy.8 mph88%30.01 "HgN/A
8:25 AM57 °FOvercast.9 mph88%30.01 "HgN/A
7:55 AM57 °FOvercast.8 mph88%29.98 "HgN/A
7:25 AM57 °FMostly cloudy.9 mph88%29.98 "HgN/A
6:55 AM57 °FMostly cloudy.10 mph88%29.98 "HgN/A
5:25 AM57 °FPassing clouds.10 mph88%29.98 "HgN/A
4:55 AM57 °FPartly cloudy.9 mph88%29.98 "HgN/A
4:25 AM57 °FMostly cloudy.8 mph88%29.98 "HgN/A
3:56 AM57 °FPassing clouds.9 mph88%30.01 "HgN/A
3:55 AM57 °FPassing clouds.8 mph88%30.01 "HgN/A
3:25 AM57 °FPassing clouds.8 mph88%30.01 "HgN/A
2:55 AM57 °FCool.9 mph88%30.01 "HgN/A
2:25 AM59 °FPassing clouds.10 mph82%30.01 "HgN/A
1:55 AM59 °FPassing clouds.10 mph82%30.01 "HgN/A
1:25 AM59 °FPassing clouds.10 mph82%30.01 "HgN/A
1:02 AM59 °FPassing clouds.12 mph82%30.01 "HgN/A
12:55 AM59 °FPartly cloudy.10 mph82%30.01 "HgN/A
12:25 AM59 °FPassing clouds.10 mph82%30.01 "HgN/A
11:55 PM
Oct 19
59 °FPassing clouds.10 mph82%30.01 "HgN/A
11:25 PM61 °FMostly cloudy.12 mph83%30.01 "HgN/A
11:02 PM61 °FPartly cloudy.10 mph77%30.01 "HgN/A
10:55 PM61 °FOvercast.12 mph77%30.01 "HgN/A
10:25 PM61 °FPassing clouds.10 mph77%29.98 "HgN/A
9:55 PM61 °FCool.13 mph77%29.98 "HgN/A
9:25 PM63 °FMild.14 mph73%29.98 "HgN/A
8:55 PM63 °FMild.15 mph73%29.95 "HgN/A
8:25 PM63 °FOvercast.9 mph77%29.95 "HgN/A
7:55 PM64 °FOvercast.9 mph78%29.95 "HgN/A
7:25 PM64 °FOvercast.9 mph78%29.95 "HgN/A
6:55 PM64 °FOvercast.8 mph73%29.95 "HgN/A
6:25 PM66 °FOvercast.10 mph73%29.95 "HgN/A
5:55 PM66 °FScattered clouds.9 mph78%29.95 "HgN/A
5:25 PM68 °FPartly sunny.10 mph78%29.95 "HgN/A
4:55 PM68 °FBroken clouds.12 mph78%29.95 "HgN/A
4:25 PM70 °FMostly cloudy.13 mph69%29.95 "HgN/A
3:55 PM70 °FCloudy.14 mph73%29.95 "HgN/A
3:25 PM70 °FPartly sunny.10 mph73%29.95 "HgN/A
2:55 PM72 °FMostly cloudy.10 mph69%29.95 "HgN/A
2:25 PM72 °FPartly sunny.13 mph69%29.95 "HgN/A
1:55 PM72 °FScattered clouds.13 mph69%29.95 "HgN/A
1:25 PM72 °FPartly sunny.10 mph69%29.95 "HgN/A
12:55 PM72 °FBroken clouds.10 mph69%29.95 "HgN/A
12:25 PM70 °FMild.12 mph73%29.95 "HgN/A
Weather by CustomWeather, © 2014

See weather overviewHow to use our weather pages